Doncaster Sheffield, United Kingdom

2:26 AM BST on July 27, 2017 (GMT +0100)
Robin Hood Airport

Weather History for EGCN - June, 2014

Change the Weather History Date:

Wednesday, June 4, 2014

  Actual Average Record
Temperature  
Mean Temperature 55 °F -  
Max Temperature 60 °F - - ()
Min Temperature 50 °F - - ()
Degree Days  
Heating Degree Days 10    
Growing Degree Days 5 (Base 50)    
Moisture  
Dew Point 52 °F    
Average Humidity 91    
Maximum Humidity 100    
Minimum Humidity 77    
Precipitation  
Precipitation 0.00 in - - ()
Sea Level Pressure  
Sea Level Pressure 29.64 in    
Wind  
Wind Speed 5 mph ()    
Max Wind Speed 9 mph    
Max Gust Speed -    
Visibility 5.7 miles    
Events Rain    
T = Trace of Precipitation, MM = Missing Value Source: Averaged Metar Reports

Daily Weather History Graph

Daily Weather History Graph

Search for Another Location

Airport or City:

Trip Planner

Search our weather history database for the weather conditions in past years. The results will help you decide how hot, cold, wet, or windy it might be!

Date:

Astronomy

Jun. 04, 2014 Rise Set
Actual Time 4:39 AM BST 9:25 PM BST
Civil Twilight 3:49 AM BST 10:16 PM BST
Nautical Twilight 2:25 AM BST 11:40 PM BST
Astronomical Twilight Sun does not set Sun does not set
Moon 11:24 AM BST (6/4) 12:40 AM BST (6/4)
Length of Visible Light 18h 27m
Length of Day
16h 46m
Waxing Crescent, 37% of the Moon is Illuminated
Jun 4
Waxing Crescent
Jun 5
First Quarter
Jun 13
Full
Jun 19
Last Quarter
Jun 27
New

Hourly Weather History & Observations

Time (BST) Temp. Dew Point Humidity Pressure Visibility Wind Dir Wind Speed Gust Speed Precip Events Conditions
12:20 AM 55.4 °F 53.6 °F 94% 29.77 in 6.2 mi Variable 1.2 mph - N/A   Scattered Clouds
12:50 AM 55.4 °F 53.6 °F 94% 29.77 in 6.2 mi NNE 2.3 mph - N/A   Mostly Cloudy
1:20 AM 55.4 °F 51.8 °F 88% 29.77 in 6.2 mi Variable 3.5 mph - N/A   Mostly Cloudy
2:20 AM 53.6 °F 50.0 °F 88% 29.74 in 6.2 mi NNW 3.5 mph - N/A   Mostly Cloudy
4:50 AM 53.6 °F 50.0 °F 88% 29.68 in 5.6 mi NW 6.9 mph - N/A   Mostly Cloudy
5:20 AM 51.8 °F 50.0 °F 94% 29.68 in 5.0 mi NW 8.1 mph - N/A Rain Light Rain
5:50 AM 51.8 °F 48.2 °F 88% 29.68 in 4.3 mi NW 8.1 mph - N/A Rain Light Rain
6:20 AM 50.0 °F 48.2 °F 94% 29.68 in 6.2 mi NW 5.8 mph - N/A   Mostly Cloudy
6:50 AM 51.8 °F 50.0 °F 94% 29.68 in 6.2 mi NW 6.9 mph - N/A Rain Light Rain
7:20 AM 50.0 °F 48.2 °F 94% 29.68 in 6.2 mi NW 8.1 mph - N/A Rain Light Rain
7:50 AM 51.8 °F 50.0 °F 94% 29.65 in 6.2 mi NW 8.1 mph - N/A Rain Light Rain
8:20 AM 51.8 °F 50.0 °F 94% 29.65 in 5.0 mi NW 8.1 mph - N/A Rain Light Rain
8:50 AM 53.6 °F 51.8 °F 94% 29.65 in 3.1 mi NNW 8.1 mph - N/A Rain Rain
9:20 AM 51.8 °F 50.0 °F 94% 29.65 in 3.1 mi NW 9.2 mph - N/A Rain Rain
9:50 AM 51.8 °F 50.0 °F 94% 29.65 in 2.5 mi NW 5.8 mph - N/A Rain Light Rain
10:20 AM 53.6 °F 51.8 °F 94% 29.65 in 5.0 mi NW 6.9 mph - N/A Rain Light Rain
10:50 AM 53.6 °F 53.6 °F 100% 29.62 in 5.0 mi WNW 6.9 mph - N/A Rain Light Rain
11:20 AM 53.6 °F 51.8 °F 94% 29.62 in 5.6 mi NW 8.1 mph - N/A Rain Light Rain
11:50 AM 55.4 °F 53.6 °F 94% 29.62 in 5.6 mi NW 8.1 mph - N/A Rain Light Rain
12:20 PM 55.4 °F 51.8 °F 88% 29.62 in 5.6 mi NNW 6.9 mph - N/A Rain Light Rain
12:50 PM 55.4 °F 51.8 °F 88% 29.62 in 6.2 mi NW 6.9 mph - N/A Rain Light Rain
1:20 PM 55.4 °F 51.8 °F 88% 29.62 in 6.2 mi North 4.6 mph - N/A Rain Light Rain
1:50 PM 55.4 °F 51.8 °F 88% 29.62 in 6.2 mi NNW 3.5 mph - N/A Rain Light Rain
2:20 PM 57.2 °F 53.6 °F 88% 29.59 in 6.2 mi Variable 3.5 mph - N/A Rain Light Rain
3:20 PM 55.4 °F 53.6 °F 94% 29.59 in 6.2 mi WSW 5.8 mph - N/A   Scattered Clouds
4:20 PM 57.2 °F 53.6 °F 88% 29.59 in 6.2 mi West 6.9 mph - N/A   Mostly Cloudy
4:50 PM 57.2 °F 53.6 °F 88% 29.59 in 6.2 mi WSW 5.8 mph - N/A   Mostly Cloudy
5:20 PM 57.2 °F 53.6 °F 88% 29.59 in 6.2 mi West 6.9 mph - N/A   Overcast
5:50 PM 57.2 °F 53.6 °F 88% 29.59 in 6.2 mi West 5.8 mph - N/A   Partly Cloudy
6:20 PM 60.8 °F 53.6 °F 77% 29.59 in 6.2 mi WNW 5.8 mph - N/A   Scattered Clouds
6:50 PM 59.0 °F 53.6 °F 82% 29.59 in 6.2 mi West 8.1 mph - N/A   Mostly Cloudy
7:20 PM 57.2 °F 51.8 °F 82% 29.59 in 6.2 mi West 8.1 mph - N/A   Mostly Cloudy
7:50 PM 57.2 °F 53.6 °F 88% 29.59 in 6.2 mi West 4.6 mph - N/A   Partly Cloudy
8:20 PM 55.4 °F 51.8 °F 88% 29.59 in 6.2 mi WNW 4.6 mph - N/A   Partly Cloudy
8:50 PM 55.4 °F 51.8 °F 88% 29.59 in 6.2 mi WSW 4.6 mph - N/A   Partly Cloudy
9:20 PM 55.4 °F 51.8 °F 88% 29.62 in 6.2 mi SSW 3.5 mph - N/A   Scattered Clouds
9:50 PM 53.6 °F 51.8 °F 94% 29.62 in 6.2 mi SW 3.5 mph - N/A   Partly Cloudy
10:20 PM 53.6 °F 51.8 °F 94% 29.62 in 6.2 mi WSW 3.5 mph - N/A   Scattered Clouds
10:50 PM 53.6 °F 51.8 °F 94% 29.62 in 6.2 mi WSW 3.5 mph - N/A   Scattered Clouds
11:20 PM 53.6 °F 51.8 °F 94% 29.62 in 6.2 mi WSW 4.6 mph - N/A   Scattered Clouds
11:50 PM 53.6 °F 51.8 °F 94% 29.62 in 6.2 mi West 5.8 mph - N/A   Scattered Clouds